This is the latest recevied weather packets stored in our database for station/object W7TJC. If no packets are shown the sender has not sent any weather packets the latest 10 day(s).
| Time | Temp. | Humidity | Pressure | Rain* | Wind** | Luminosity | Snow |
|---|---|---|---|---|---|---|---|
| 1777052801 | 12.22° C | 76% | 1021.4 hPa | 0 mm | - | 76 W/m² | - |
| 1777052500 | 12.22° C | 76% | 1021.2 hPa | 0 mm | - | 155 W/m² | - |
| 1777052198 | 12.22° C | 78% | 1021.4 hPa | 0 mm | - | 29 W/m² | - |
| 1777051898 | 11.67° C | 79% | 1021.3 hPa | 0 mm | - | 29 W/m² | - |
| 1777051596 | 11.67° C | 80% | 1021.5 hPa | 0 mm | - | 27 W/m² | - |
| 1777051292 | 11.67° C | 81% | 1021.2 hPa | 0 mm | - | 26 W/m² | - |
| 1777050988 | 11.11° C | 82% | 1021.2 hPa | 0 mm | - | 26 W/m² | - |
| 1777050684 | 11.11° C | 83% | 1021.6 hPa | 0 mm | - | 25 W/m² | - |
| 1777050379 | 11.11° C | 82% | 1021.5 hPa | 0 mm | - | 24 W/m² | - |
| 1777050074 | 11.11° C | 84% | 1021.4 hPa | 0 mm | - | 23 W/m² | - |
| 1777049774 | 10.56° C | 84% | 1021.5 hPa | 0 mm | - | 23 W/m² | - |
| 1777049470 | 10.56° C | 86% | 1021.6 hPa | 0 mm | - | 22 W/m² | - |
| 1777049168 | 10.56° C | 86% | 1021.8 hPa | 0 mm | - | 20 W/m² | - |
| 1777048863 | 10.56° C | 85% | 1021.7 hPa | 0 mm | - | 22 W/m² | - |
| 1777048559 | 10.56° C | 85% | 1021.9 hPa | 0 mm | - | 34 W/m² | - |
| 1777048258 | 10° C | 86% | 1021.7 hPa | 0 mm | - | 34 W/m² | - |
| 1777047954 | 10° C | 88% | 1022.1 hPa | 0 mm | - | 29 W/m² | - |
| 1777047650 | 10° C | 88% | 1022.3 hPa | 0 mm | - | 26 W/m² | - |
| 1777047345 | 10° C | 89% | 1022.3 hPa | 0 mm | - | 46 W/m² | - |
| 1777047041 | 10° C | 88% | 1022.3 hPa | 0 mm | - | 86 W/m² | - |
| 1777046738 | 10° C | 89% | 1022.1 hPa | 0 mm | - | 121 W/m² | - |
| 1777046434 | 10° C | 86% | 1022.3 hPa | 0 mm | - | 163 W/m² | - |
| 1777046129 | 9.44° C | 87% | 1022.2 hPa | 0 mm | - | 103 W/m² | - |
| 1777045826 | 9.44° C | 89% | 1022.4 hPa | 0 mm | - | 55 W/m² | - |
| 1777045522 | 8.89° C | 91% | 1022.3 hPa | 0 mm | - | 23 W/m² | - |
* Rain latest hour (hover to see other rain measurements)
** Current wind speed in m/s (hover to see current wind gust speed)